Location: ??
(35.4627°N, 139.3695°E)
Time: 05:03:24
(UTC+00:00)

Cosmos 1538 Rocket - Pass Details

Date: 25 November 2020
Orbit: 752 x 791 km, 74.0° (Epoch: 20 January)

Event Time Altitude Azimuth Distance (km) Brightness Sun altitude
Exits shadow 20:13:25 12° 331° (NNW) 2,205 6.0 -15.2°
Maximum altitude 20:18:11 51° 257° (WSW) 969 4.2 -14.2°
Drops below altitude 10° 20:23:15 10° 182° (S) 2,302 6.7 -13.2°
Sets 20:25:39 0° 178° (S) 3,218 7.5 -12.8°
